Weather History for KJER - January, 2013

Change the Weather History Date:

Saturday, January 12, 2013

  Actual Average Record
Temperature  
Mean Temperature 10 °F 26 °F  
Max Temperature 14 °F 33 °F 60 °F (1953)
Min Temperature 5 °F 20 °F -17 °F (1963)
Degree Days  
Heating Degree Days 55 39  
Month to date heating degree days 590 468  
Since 1 July heating degree days 2869 3198  
Cooling Degree Days 0 0  
Month to date cooling degree days 0 0  
Year to date cooling degree days 0 0  
Moisture  
Dew Point 7 °F    
Average Humidity 80    
Maximum Humidity 92    
Minimum Humidity 67    
Precipitation  
Precipitation T in 0.04 in 0.60 in (2015)
Month to date precipitation 0.04 0.60  
Year to date precipitation 0.04 0.60  
Sea Level Pressure  
Sea Level Pressure 30.22 in    
Wind  
Wind Speed 6 mph (SW)    
Max Wind Speed 14 mph    
Max Gust Speed 17 mph    
Visibility 9 miles    
Events Snow    
T = Trace of Precipitation, MM = Missing Value Source: NWS Daily Summary

Daily Weather History Graph

Daily Weather History Graph

Search for Another Location

Airport or City:

Trip Planner

Search our weather history database for the weather conditions in past years. The results will help you decide how hot, cold, wet, or windy it might be!

Date:

Astronomy

Jan. 12, 2013 Rise Set
Actual Time 8:06 AM MST 5:26 PM MST
Civil Twilight 7:35 AM MST 5:57 PM MST
Nautical Twilight 7:00 AM MST 6:32 PM MST
Astronomical Twilight 6:26 AM MST 7:06 PM MST
Moon 8:25 AM MST (1/12) 7:03 PM MST (1/12)
Length of Visible Light 10h 22m
Length of Day
9h 19m
New Moon, 1% of the Moon is Illuminated
Jan 12
New Moon
Jan 18
First Quarter
Jan 26
Full
Feb 3
Last Quarter
Feb 10
New

Hourly Weather History & Observations

Time (MST) Temp. Windchill Dew Point Humidity Pressure Visibility Wind Dir Wind Speed Gust Speed Precip Events Conditions
1:53 AM 12.0 °F -1.3 °F 6.1 °F 77% 30.18 in 10.0 mi East 10.4 mph - N/A   Overcast
2:53 AM 12.0 °F -1.3 °F 5.0 °F 73% 30.19 in 10.0 mi ENE 10.4 mph - N/A   Overcast
3:53 AM 12.0 °F -1.3 °F 3.0 °F 67% 30.19 in 10.0 mi ENE 10.4 mph - N/A   Overcast
4:53 AM 9.0 °F -4.2 °F 3.9 °F 80% 30.20 in 10.0 mi NNE 9.2 mph - N/A   Overcast
5:53 AM 8.1 °F -6.2 °F 3.9 °F 83% 30.22 in 10.0 mi NE 10.4 mph - N/A   Overcast
6:53 AM 7.0 °F -8.3 °F 3.0 °F 84% 30.23 in 10.0 mi NE 11.5 mph - N/A   Overcast
7:53 AM 6.1 °F -6.8 °F 1.0 °F 80% 30.25 in 10.0 mi ENE 8.1 mph - N/A   Overcast
8:05 AM 6.8 °F -4.8 °F 1.4 °F 79% 30.08 in 10.0 mi ENE 6.9 mph - N/A   Overcast
8:53 AM 10.0 °F 0.4 °F 5.0 °F 80% 30.27 in 10.0 mi ENE 5.8 mph - N/A   Overcast
9:53 AM 9.0 °F -0.9 °F 3.9 °F 80% 30.29 in 10.0 mi East 5.8 mph - 0.00 in Snow Light Snow
10:37 AM 12.2 °F - 8.6 °F 85% 30.12 in 10.0 mi Calm Calm - 0.00 in   Mostly Cloudy
10:53 AM 10.9 °F 4.7 °F 8.1 °F 88% 30.31 in 10.0 mi SSE 3.5 mph - 0.00 in   Partly Cloudy
11:53 AM 10.9 °F 0.2 °F 8.1 °F 88% 30.30 in 10.0 mi SW 6.9 mph - N/A   Clear
12:09 PM 10.4 °F -0.4 °F 8.6 °F 92% 30.12 in 10.0 mi SW 6.9 mph - N/A   Partly Cloudy
12:34 PM 12.2 °F 0.7 °F 6.8 °F 79% 30.11 in 10.0 mi WSW 8.1 mph - N/A   Overcast
12:53 PM 12.0 °F 1.5 °F 6.1 °F 77% 30.28 in 10.0 mi West 6.9 mph - N/A   Overcast
1:10 PM 12.2 °F 2.9 °F 6.8 °F 79% 30.10 in 10.0 mi West 5.8 mph - N/A   Overcast
1:53 PM 12.0 °F 5.9 °F 7.0 °F 80% 30.27 in 10.0 mi WSW 3.5 mph - N/A   Mostly Cloudy
2:53 PM 12.9 °F 3.8 °F 8.1 °F 81% 30.27 in 10.0 mi West 5.8 mph - N/A   Overcast
3:45 PM 14.0 °F 5.1 °F 8.6 °F 79% 30.09 in 10.0 mi WSW 5.8 mph - 0.00 in   Overcast
3:53 PM 14.0 °F 3.9 °F 8.1 °F 77% 30.26 in 10.0 mi SW 6.9 mph - 0.00 in Snow Light Snow
4:53 PM 14.0 °F 8.2 °F 8.1 °F 77% 30.27 in 10.0 mi West 3.5 mph - 0.00 in   Overcast
6:53 PM 12.0 °F - 9.0 °F 88% 30.29 in 10.0 mi Calm Calm - 0.00 in   Overcast
7:02 PM 12.2 °F 6.1 °F 8.6 °F 85% 30.10 in 10.0 mi SW 3.5 mph - N/A   Overcast
7:53 PM 10.9 °F 4.7 °F 8.1 °F 88% 30.30 in 10.0 mi SSW 3.5 mph - N/A   Overcast
8:53 PM 10.9 °F 2.9 °F 8.1 °F 88% 30.30 in 10.0 mi SSW 4.6 mph - N/A   Overcast
9:53 PM 10.9 °F - 9.0 °F 92% 30.31 in 6.0 mi Calm Calm - 0.00 in Snow Light Snow
10:53 PM 10.9 °F - 9.0 °F 92% 30.31 in 5.0 mi Calm Calm - 0.00 in Snow Light Snow
11:18 PM 10.4 °F - 8.6 °F 92% 30.13 in 3.0 mi Calm Calm - 0.00 in Snow Light Snow
11:26 PM 10.4 °F - 8.6 °F 92% 30.13 in 3.0 mi Calm Calm - 0.00 in Snow Light Snow
11:53 PM 10.9 °F - 8.1 °F 88% 30.32 in 5.0 mi Calm Calm - 0.00 in Snow Light Snow